Woodward, OK

8:22 AM CDT on September 29, 2016 (GMT -0500)
West Woodward

Weather History for KWWR - December, 2012

Change the Weather History Date:

Wednesday, December 5, 2012

  Actual Average (KGAG) Record (KGAG)
Temperature  
Mean Temperature 50 °F -  
Max Temperature 62 °F 54 °F 74 °F (1989)
Min Temperature 39 °F 27 °F 1 °F (1964)
Degree Days  
Heating Degree Days 14    
Moisture  
Dew Point 20 °F    
Average Humidity 30    
Maximum Humidity 46    
Minimum Humidity 18    
Precipitation  
Precipitation 0.00 in - - ()
Sea Level Pressure  
Sea Level Pressure 30.15 in    
Wind  
Wind Speed 11 mph (SSE)    
Max Wind Speed 22 mph    
Max Gust Speed 26 mph    
Visibility 10 miles    
Events      
Averages and records for this station are not official NWS values.
T = Trace of Precipitation, MM = Missing Value Source: NWS Daily Summary

Daily Weather History Graph

Daily Weather History Graph

Search for Another Location

Airport or City:

Trip Planner

Search our weather history database for the weather conditions in past years. The results will help you decide how hot, cold, wet, or windy it might be!

Date:

Astronomy

Dec. 05, 2012 Rise Set
Actual Time 7:35 AM CST 5:22 PM CST
Civil Twilight 7:06 AM CST 5:51 PM CST
Nautical Twilight 6:34 AM CST 6:23 PM CST
Astronomical Twilight 6:03 AM CST 6:54 PM CST
Moon No Moon Rise 12:07 PM CST (12/5)
Length of Visible Light 10h 44m
Length of Day
9h 47m
Waning Gibbous, 59% of the Moon is Illuminated
Dec 5
Waning Gibbous
Dec 6
Last Quarter
Dec 13
New
Dec 19
First Quarter
Dec 28
Full

Hourly Weather History & Observations

Time (CST) Temp. Windchill Dew Point Humidity Pressure Visibility Wind Dir Wind Speed Gust Speed Precip Events Conditions
12:15 AM 41.0 °F 34.7 °F 17.6 °F 39% 30.33 in 10.0 mi SSE 10.4 mph - N/A   Clear
12:35 AM 41.0 °F 35.2 °F 17.6 °F 39% 30.33 in 10.0 mi SSE 9.2 mph - N/A   Clear
12:55 AM 41.0 °F 35.2 °F 17.6 °F 39% 30.33 in 10.0 mi South 9.2 mph - N/A   Clear
1:15 AM 42.8 °F 38.0 °F 17.6 °F 36% 30.33 in 10.0 mi SSE 8.1 mph - N/A   Clear
1:35 AM 46.4 °F 41.5 °F 17.6 °F 32% 30.32 in 10.0 mi South 10.4 mph - N/A   Clear
1:55 AM 44.6 °F 39.7 °F 17.6 °F 34% 30.31 in 10.0 mi South 9.2 mph - N/A   Clear
2:15 AM 42.8 °F 37.5 °F 17.6 °F 36% 30.32 in 10.0 mi SSE 9.2 mph - N/A   Clear
2:35 AM 44.6 °F 39.7 °F 17.6 °F 34% 30.32 in 10.0 mi SSE 9.2 mph - N/A   Clear
2:55 AM 42.8 °F 37.5 °F 17.6 °F 36% 30.32 in 10.0 mi SSE 9.2 mph - N/A   Clear
3:15 AM 44.6 °F 39.7 °F 17.6 °F 34% 30.32 in 10.0 mi SSE 9.2 mph - N/A   Clear
3:35 AM 42.8 °F 37.0 °F 17.6 °F 36% 30.32 in 10.0 mi SSE 10.4 mph - N/A   Clear
3:55 AM 42.8 °F 37.0 °F 17.6 °F 36% 30.31 in 10.0 mi SSE 10.4 mph - N/A   Clear
4:15 AM 42.8 °F 37.5 °F 17.6 °F 36% 30.30 in 10.0 mi SSE 9.2 mph - N/A   Clear
4:35 AM 41.0 °F 35.2 °F 17.6 °F 39% 30.29 in 10.0 mi SSE 9.2 mph - N/A   Clear
4:55 AM 42.8 °F 37.5 °F 17.6 °F 36% 30.29 in 10.0 mi SSE 9.2 mph - N/A   Clear
5:15 AM 41.0 °F 36.4 °F 19.4 °F 42% 30.29 in 10.0 mi SSE 6.9 mph - N/A   Clear
5:35 AM 39.2 °F 35.0 °F 19.4 °F 45% 30.29 in 10.0 mi SSE 5.8 mph - N/A   Clear
5:55 AM 42.8 °F 37.5 °F 19.4 °F 39% 30.29 in 10.0 mi SSE 9.2 mph - N/A   Clear
6:15 AM 42.8 °F 37.5 °F 19.4 °F 39% 30.29 in 10.0 mi SSE 9.2 mph - N/A   Clear
6:35 AM 44.6 °F 39.2 °F 19.4 °F 37% 30.28 in 10.0 mi SSE 10.4 mph - N/A   Clear
6:55 AM 42.8 °F 37.0 °F 19.4 °F 39% 30.29 in 10.0 mi SSE 10.4 mph - N/A   Clear
8:55 AM 42.8 °F 41.1 °F 23.0 °F 46% 30.28 in 10.0 mi WSW 3.5 mph - N/A   Clear
9:15 AM 44.6 °F - 23.0 °F 43% 30.27 in 10.0 mi Calm Calm - N/A   Clear
9:35 AM 50.0 °F - 23.0 °F 35% 30.27 in 10.0 mi SSW 8.1 mph - N/A   Clear
9:55 AM 53.6 °F - 21.2 °F 28% 30.27 in 10.0 mi South 11.5 mph - N/A   Clear
10:15 AM 55.4 °F - 21.2 °F 26% 30.27 in 10.0 mi South 11.5 mph 18.4 mph N/A   Clear
10:35 AM 57.2 °F - 19.4 °F 23% 30.26 in 10.0 mi South 12.7 mph - N/A   Clear
10:55 AM 57.2 °F - 19.4 °F 23% 30.25 in 10.0 mi South 16.1 mph - N/A   Clear
11:15 AM 59.0 °F - 19.4 °F 22% 30.24 in 10.0 mi South 13.8 mph - N/A   Clear
11:35 AM 59.0 °F - 19.4 °F 22% 30.23 in 10.0 mi South 13.8 mph - N/A   Clear
11:55 AM 59.0 °F - 19.4 °F 22% 30.21 in 10.0 mi South 12.7 mph - N/A   Clear
12:15 PM 59.0 °F - 19.4 °F 22% 30.19 in 10.0 mi South 11.5 mph 16.1 mph N/A   Clear
12:35 PM 60.8 °F - 19.4 °F 20% 30.18 in 10.0 mi South 10.4 mph 18.4 mph N/A   Clear
12:55 PM 60.8 °F - 17.6 °F 19% 30.16 in 10.0 mi South 12.7 mph - N/A   Clear
1:15 PM 60.8 °F - 17.6 °F 19% 30.14 in 10.0 mi South 15.0 mph 23.0 mph N/A   Clear
1:35 PM 60.8 °F - 19.4 °F 20% 30.12 in 10.0 mi South 13.8 mph 17.3 mph N/A   Clear
1:55 PM 62.6 °F - 17.6 °F 18% 30.11 in 10.0 mi South 15.0 mph 19.6 mph N/A   Clear
2:15 PM 62.6 °F - 17.6 °F 18% 30.10 in 10.0 mi South 16.1 mph - N/A   Clear
2:35 PM 60.8 °F - 17.6 °F 19% 30.09 in 10.0 mi SSE 15.0 mph 21.9 mph N/A   Clear
2:55 PM 60.8 °F - 19.4 °F 20% 30.08 in 10.0 mi South 13.8 mph 17.3 mph N/A   Clear
3:15 PM 60.8 °F - 19.4 °F 20% 30.07 in 10.0 mi SSE 12.7 mph - N/A   Clear
3:35 PM 60.8 °F - 19.4 °F 20% 30.07 in 10.0 mi SSE 12.7 mph - N/A   Clear
3:55 PM 60.8 °F - 17.6 °F 19% 30.07 in 10.0 mi SSE 13.8 mph 20.7 mph N/A   Clear
4:15 PM 60.8 °F - 17.6 °F 19% 30.05 in 10.0 mi South 15.0 mph - N/A   Clear
4:35 PM 60.8 °F - 17.6 °F 19% 30.05 in 10.0 mi SSE 13.8 mph - N/A   Clear
4:55 PM 59.0 °F - 17.6 °F 20% 30.05 in 10.0 mi SSE 8.1 mph - N/A   Clear
5:15 PM 55.4 °F - 19.4 °F 25% 30.03 in 10.0 mi SE 10.4 mph - N/A   Clear
5:35 PM 53.6 °F - 19.4 °F 26% 30.02 in 10.0 mi SE 9.2 mph - N/A   Clear
5:55 PM 53.6 °F - 19.4 °F 26% 30.02 in 10.0 mi SSE 9.2 mph - N/A   Clear
6:15 PM 51.8 °F - 19.4 °F 28% 30.01 in 10.0 mi SSE 10.4 mph - N/A   Clear
6:35 PM 51.8 °F - 19.4 °F 28% 30.02 in 10.0 mi SSE 10.4 mph - N/A   Clear
6:55 PM 51.8 °F - 19.4 °F 28% 30.00 in 10.0 mi SSE 12.7 mph - N/A   Clear
7:15 PM 51.8 °F - 19.4 °F 28% 30.00 in 10.0 mi SSE 13.8 mph - N/A   Clear
7:35 PM 51.8 °F - 19.4 °F 28% 30.00 in 10.0 mi SSE 13.8 mph 18.4 mph N/A   Clear
7:55 PM 51.8 °F - 21.2 °F 30% 30.00 in 10.0 mi South 10.4 mph - N/A   Clear
8:15 PM 51.8 °F - 21.2 °F 30% 29.99 in 10.0 mi SSE 11.5 mph - N/A   Clear
8:35 PM 51.8 °F - 21.2 °F 30% 29.99 in 10.0 mi South 15.0 mph 20.7 mph N/A   Clear
8:55 PM 51.8 °F - 23.0 °F 33% 29.99 in 10.0 mi SSE 15.0 mph 21.9 mph N/A   Clear
9:15 PM 51.8 °F - 23.0 °F 33% 29.98 in 10.0 mi SSE 15.0 mph 19.6 mph N/A   Clear
9:35 PM 51.8 °F - 23.0 °F 33% 29.97 in 10.0 mi SSE 16.1 mph 21.9 mph N/A   Clear
9:55 PM 51.8 °F - 24.8 °F 35% 29.96 in 10.0 mi SSE 16.1 mph 21.9 mph N/A   Clear
10:15 PM 51.8 °F - 24.8 °F 35% 29.95 in 10.0 mi SSE 15.0 mph 19.6 mph N/A   Clear
10:35 PM 51.8 °F - 24.8 °F 35% 29.94 in 10.0 mi SSE 17.3 mph 23.0 mph N/A   Clear
10:55 PM 51.8 °F - 23.0 °F 33% 29.92 in 10.0 mi SSE 17.3 mph - N/A   Clear
11:15 PM 51.8 °F - 24.8 °F 35% 29.91 in 10.0 mi South 19.6 mph 24.2 mph N/A   Clear
11:35 PM 51.8 °F - 24.8 °F 35% 29.90 in 10.0 mi SSE 21.9 mph 26.5 mph N/A   Clear
11:55 PM 51.8 °F - 24.8 °F 35% 29.91 in 10.0 mi South 17.3 mph 26.5 mph N/A   Clear